Home > Weather > Al-Jamiliyah > Past weeks

Flag for Qatar Weather for the Past 2 Weeks in Al-Jamiliyah, Qatar

Now
75 °F

Clear.


Feels Like: 78 °F
Forecast: 77 / 100 °F
Wind: 2 mph from North

Location: Doha International Airport

Current Time: May 2, 2016 at 5:17:29 AM

Latest Report: May 2, 2016 at 4:30 AM


Visibility: 10 mi

Pressure: 29.80 "Hg

Humidity: 54%

Dew Point: 57 °F

Location of Al-JamiliyahLocation

Historic Weather in Al-Jamiliyah — Graph

°F

Al-Jamiliyah Temperature Yesterday

Maximum temperature yesterday: 95 °F (at 2:00 PM)
Minimum temperature yesterday: 79 °F (at 3:00 AM)
Average temperature yesterday: 86 °F

High & Low Weather Summary for the Past Weeks

 TemperatureHumidityPressure
High102 °F (Apr 26, 12:00 PM)70% (Apr 26, 2:00 AM)30.01 "Hg (Apr 26, 2:00 AM)
Low73 °F (Apr 17, 4:00 AM)4% (Apr 23, 10:00 AM)29.65 "Hg (Apr 24, 3:00 PM)
Average85 °F33%29.83 "Hg
* Reported Apr 17 4:00 AM — May 2 4:00 AM, Al-Jamiliyah, Weather by CustomWeather, © 2016

Note: Actual official high and low records may vary slightly from our data, if they occured in-between our weather recording intervals... More about our weather records

Advertising

Al-Jamiliyah Weather History for the Previous 24 Hours

Scroll right to see more
 ConditionsComfort  
Time TempWeatherWind HumidityBarometerVisibility
4:00 AM
Mon, May 2
77 °FPassing clouds.5 mph51%29.80 "HgN/A
3:30 AM77 °FPassing clouds.5 mph54%29.80 "HgN/A
2:00 AM79 °FPassing clouds.9 mph30%29.80 "HgN/A
1:00 AM81 °FPassing clouds.7 mph26%29.80 "HgN/A
12:00 AM82 °FPassing clouds.6 mph23%29.83 "HgN/A
11:00 PM
Sun, May 1
84 °FPassing clouds.6 mph22%29.86 "HgN/A
10:00 PM84 °FClear.1 mph18%29.86 "Hg10 mi
9:00 PM86 °FPassing clouds.5 mph18%29.86 "HgN/A
8:00 PM86 °FPassing clouds.6 mph19%29.86 "HgN/A
7:00 PM88 °FPassing clouds.7 mph17%29.83 "HgN/A
6:00 PM88 °FPassing clouds.9 mph19%29.80 "HgN/A
5:00 PM91 °FPassing clouds.12 mph20%29.80 "HgN/A
4:00 PM88 °FSunny.14 mph43%29.80 "Hg10 mi
3:00 PM95 °FSunny.20 mph18%29.80 "Hg10 mi
2:00 PM95 °FPassing clouds.12 mph15%29.80 "HgN/A
1:00 PM93 °FPassing clouds.13 mph17%29.83 "HgN/A
12:00 PM91 °FPassing clouds.15 mph21%29.86 "HgN/A
11:30 AM91 °FPassing clouds.13 mph23%29.86 "HgN/A
11:00 AM91 °FPassing clouds.13 mph24%29.86 "HgN/A
10:30 AM90 °FPassing clouds.13 mph27%29.86 "HgN/A
10:00 AM90 °FPassing clouds.12 mph27%29.86 "HgN/A
9:00 AM90 °FPassing clouds.14 mph27%29.89 "HgN/A
8:00 AM82 °FPassing clouds.12 mph42%29.89 "HgN/A
7:00 AM81 °FPassing clouds.7 mph48%29.86 "HgN/A
6:30 AM81 °FPassing clouds.7 mph54%29.86 "HgN/A
5:30 AM79 °FPassing clouds.9 mph54%29.86 "HgN/A
5:00 AM79 °FPassing clouds.10 mph58%29.83 "HgN/A
Weather by CustomWeather, © 2016

See weather overviewHow to use our weather pages